Time,TemperatureF,DewpointF,PressureIn,WindDirection,WindDirectionDegrees,WindSpeedMPH,WindSpeedGustMPH,Humidity,HourlyPrecipIn,Conditions,Clouds,dailyrainin,SoftwareType,DateUTC
2013-04-17 00:00:00,72.3,67.5,29.92,SE,145,0.0,4.0,85,0.00,,---,0.00,VWS V14.01,2013-04-17 05:00:00,
2013-04-17 00:05:00,72.2,67.4,29.93,SSE,160,0.0,3.0,85,0.00,,---,0.00,VWS V14.01,2013-04-17 05:05:00,
2013-04-17 00:10:00,72.1,67.3,29.93,SSE,160,0.0,3.0,85,0.00,,---,0.00,VWS V14.01,2013-04-17 05:10:00,
2013-04-17 00:15:00,72.0,67.2,29.93,SSE,160,0.0,3.0,85,0.00,,---,0.00,VWS V14.01,2013-04-17 05:15:00,
2013-04-17 00:20:00,71.7,66.9,29.93,SSE,160,0.0,3.0,85,0.00,,---,0.00,VWS V14.01,2013-04-17 05:20:00,
2013-04-17 00:25:00,71.5,67.1,29.93,SSE,160,0.0,3.0,86,0.00,,---,0.00,VWS V14.01,2013-04-17 05:25:00,
2013-04-17 00:30:00,71.3,66.9,29.93,SSE,161,0.0,3.0,86,0.00,,---,0.00,VWS V14.01,2013-04-17 05:30:00,
2013-04-17 00:35:00,71.1,67.0,29.93,SSE,160,0.0,0.0,87,0.00,,---,0.00,VWS V14.01,2013-04-17 05:35:00,
2013-04-17 00:40:00,71.0,66.9,29.93,SSE,160,0.0,0.0,87,0.00,,---,0.00,VWS V14.01,2013-04-17 05:40:00,
2013-04-17 00:45:00,70.9,66.8,29.93,SSE,160,0.0,3.0,87,0.00,,---,0.00,VWS V14.01,2013-04-17 05:45:00,
2013-04-17 00:50:00,70.9,66.8,29.93,SSE,160,1.0,3.0,87,0.00,,---,0.00,VWS V14.01,2013-04-17 05:50:00,
2013-04-17 00:55:00,70.7,66.7,29.93,SSE,160,0.0,3.0,87,0.00,,---,0.00,VWS V14.01,2013-04-17 05:55:00,
2013-04-17 01:00:00,70.5,66.4,29.93,SSE,161,0.0,3.0,87,0.00,,---,0.00,VWS V14.01,2013-04-17 06:00:00,
2013-04-17 01:05:00,70.4,66.7,29.93,SSE,160,0.0,3.0,88,0.00,,---,0.00,VWS V14.01,2013-04-17 06:05:00,
2013-04-17 01:10:00,70.4,66.7,29.93,SSE,160,0.0,3.0,88,0.00,,---,0.00,VWS V14.01,2013-04-17 06:10:00,
2013-04-17 01:15:00,70.3,66.6,29.93,SSE,160,0.0,3.0,88,0.00,,---,0.00,VWS V14.01,2013-04-17 06:15:00,
2013-04-17 01:20:00,70.2,66.5,29.92,SSE,161,0.0,3.0,88,0.00,,---,0.00,VWS V14.01,2013-04-17 06:20:00,
2013-04-17 01:25:00,70.2,66.5,29.92,SSE,160,0.0,3.0,88,0.00,,---,0.00,VWS V14.01,2013-04-17 06:25:00,
2013-04-17 01:30:00,70.2,66.5,29.92,SSE,160,0.0,3.0,88,0.00,,---,0.00,VWS V14.01,2013-04-17 06:30:00,
2013-04-17 01:35:00,70.2,66.5,29.92,SSE,160,1.0,2.0,88,0.00,,---,0.00,VWS V14.01,2013-04-17 06:35:00,
2013-04-17 01:40:00,70.2,66.5,29.92,SSE,161,1.0,3.0,88,0.00,,---,0.00,VWS V14.01,2013-04-17 06:40:00,
2013-04-17 01:45:00,70.3,66.6,29.92,SSE,161,1.0,3.0,88,0.00,,---,0.00,VWS V14.01,2013-04-17 06:45:00,
2013-04-17 01:50:00,70.4,66.7,29.91,SSE,157,0.0,4.0,88,0.00,,---,0.00,VWS V14.01,2013-04-17 06:50:00,
2013-04-17 01:55:00,70.5,66.8,29.91,SSE,153,0.0,4.0,88,0.00,,---,0.00,VWS V14.01,2013-04-17 06:55:00,
2013-04-17 02:00:00,70.5,66.8,29.91,SSE,153,0.0,4.0,88,0.00,,---,0.00,VWS V14.01,2013-04-17 07:00:00,
2013-04-17 02:05:00,70.5,66.8,29.91,SSE,165,0.0,3.0,88,0.00,,---,0.00,VWS V14.01,2013-04-17 07:05:00,
2013-04-17 02:10:00,70.5,66.8,29.91,South,178,3.0,5.0,88,0.00,,---,0.00,VWS V14.01,2013-04-17 07:10:00,
2013-04-17 02:15:00,70.5,66.4,29.91,SSE,166,2.0,5.0,87,0.00,,---,0.00,VWS V14.01,2013-04-17 07:15:00,
2013-04-17 02:20:00,70.5,66.4,29.91,SSW,202,2.0,5.0,87,0.00,,---,0.00,VWS V14.01,2013-04-17 07:20:00,
2013-04-17 02:25:00,70.6,66.6,29.91,SSW,192,4.0,7.0,87,0.00,,---,0.00,VWS V14.01,2013-04-17 07:25:00,
2013-04-17 02:31:00,70.6,66.6,29.91,SSE,168,0.0,7.0,87,0.00,,---,0.00,VWS V14.01,2013-04-17 07:31:00,
2013-04-17 02:36:00,70.6,66.6,29.91,SSE,168,0.0,3.0,87,0.00,,---,0.00,VWS V14.01,2013-04-17 07:36:00,
2013-04-17 02:41:00,70.6,66.6,29.91,South,175,0.0,5.0,87,0.00,,---,0.00,VWS V14.01,2013-04-17 07:41:00,
2013-04-17 02:46:00,70.5,66.4,29.91,SSE,148,2.0,5.0,87,0.00,,---,0.00,VWS V14.01,2013-04-17 07:46:00,
2013-04-17 02:51:00,70.4,66.3,29.91,SSE,158,0.0,5.0,87,0.00,,---,0.00,VWS V14.01,2013-04-17 07:51:00,
2013-04-17 02:56:00,70.4,66.3,29.91,SSE,167,2.0,5.0,87,0.00,,---,0.00,VWS V14.01,2013-04-17 07:56:00,
2013-04-17 03:01:00,70.3,66.2,29.91,SE,137,1.0,5.0,87,0.00,,---,0.00,VWS V14.01,2013-04-17 08:01:00,
2013-04-17 03:06:00,70.3,66.6,29.91,South,171,2.0,5.0,88,0.00,,---,0.00,VWS V14.01,2013-04-17 08:06:00,
2013-04-17 03:11:00,70.3,66.2,29.91,SSE,165,0.0,5.0,87,0.00,,---,0.00,VWS V14.01,2013-04-17 08:11:00,
2013-04-17 03:16:00,70.3,66.2,29.90,SSW,192,1.0,6.0,87,0.00,,---,0.00,VWS V14.01,2013-04-17 08:16:00,
2013-04-17 03:21:00,70.2,66.2,29.90,SSE,161,0.0,6.0,87,0.00,,---,0.00,VWS V14.01,2013-04-17 08:21:00,
2013-04-17 03:26:00,70.2,66.2,29.90,SSE,153,0.0,6.0,87,0.00,,---,0.00,VWS V14.01,2013-04-17 08:26:00,
2013-04-17 03:31:00,70.2,66.5,29.91,SSE,152,4.0,6.0,88,0.00,,---,0.00,VWS V14.01,2013-04-17 08:31:00,
2013-04-17 03:36:00,70.2,66.5,29.91,South,171,3.0,6.0,88,0.00,,---,0.00,VWS V14.01,2013-04-17 08:36:00,
2013-04-17 03:41:00,70.2,66.2,29.91,SSE,155,0.0,6.0,87,0.00,,---,0.00,VWS V14.01,2013-04-17 08:41:00,
2013-04-17 03:46:00,70.2,66.2,29.90,SSE,160,4.0,7.0,87,0.00,,---,0.00,VWS V14.01,2013-04-17 08:46:00,
2013-04-17 03:51:00,70.2,66.2,29.90,SSE,159,1.0,7.0,87,0.00,,---,0.00,VWS V14.01,2013-04-17 08:51:00,
2013-04-17 03:56:00,70.1,66.1,29.90,SSE,159,2.0,7.0,87,0.00,,---,0.00,VWS V14.01,2013-04-17 08:56:00,
2013-04-17 04:01:00,70.1,66.1,29.90,SSE,159,2.0,7.0,87,0.00,,---,0.00,VWS V14.01,2013-04-17 09:01:00,
2013-04-17 04:06:00,70.0,66.0,29.90,South,188,2.0,4.0,87,0.00,,---,0.00,VWS V14.01,2013-04-17 09:06:00,
2013-04-17 04:11:00,70.0,66.3,29.90,SSE,156,0.0,4.0,88,0.00,,---,0.00,VWS V14.01,2013-04-17 09:11:00,
2013-04-17 04:16:00,69.9,66.2,29.91,SSE,161,0.0,4.0,88,0.00,,---,0.00,VWS V14.01,2013-04-17 09:16:00,
2013-04-17 04:21:00,69.9,66.2,29.91,SSW,208,0.0,4.0,88,0.00,,---,0.00,VWS V14.01,2013-04-17 09:21:00,
2013-04-17 04:26:00,69.8,66.1,29.91,South,175,0.0,4.0,88,0.00,,---,0.00,VWS V14.01,2013-04-17 09:26:00,
2013-04-17 04:31:00,69.8,66.1,29.91,SSE,150,1.0,4.0,88,0.00,,---,0.00,VWS V14.01,2013-04-17 09:31:00,
2013-04-17 04:36:00,69.8,66.1,29.91,South,177,0.0,3.0,88,0.00,,---,0.00,VWS V14.01,2013-04-17 09:36:00,
2013-04-17 04:41:00,69.8,66.1,29.91,SSE,152,0.0,3.0,88,0.00,,---,0.00,VWS V14.01,2013-04-17 09:41:00,
2013-04-17 04:47:00,69.8,66.1,29.91,SSE,157,1.0,5.0,88,0.00,,---,0.00,VWS V14.01,2013-04-17 09:47:00,
2013-04-17 04:52:00,69.8,66.1,29.91,South,190,0.0,5.0,88,0.00,,---,0.00,VWS V14.01,2013-04-17 09:52:00,
2013-04-17 04:57:00,69.7,66.0,29.91,SSW,194,0.0,5.0,88,0.00,,---,0.00,VWS V14.01,2013-04-17 09:57:00,
2013-04-17 05:02:00,69.6,65.9,29.92,South,180,0.0,5.0,88,0.00,,---,0.00,VWS V14.01,2013-04-17 10:02:00,
2013-04-17 05:07:00,69.6,66.2,29.92,SSE,154,1.0,2.0,89,0.00,,---,0.00,VWS V14.01,2013-04-17 10:07:00,
2013-04-17 05:12:00,69.5,66.1,29.92,SSE,155,0.0,2.0,89,0.00,,---,0.00,VWS V14.01,2013-04-17 10:12:00,
2013-04-17 05:17:00,69.5,66.1,29.92,SSE,155,0.0,3.0,89,0.00,,---,0.00,VWS V14.01,2013-04-17 10:17:00,
2013-04-17 05:22:00,69.6,66.2,29.92,SSE,155,0.0,3.0,89,0.00,,---,0.00,VWS V14.01,2013-04-17 10:22:00,
2013-04-17 05:27:00,69.6,66.2,29.92,SSE,155,0.0,3.0,89,0.00,,---,0.00,VWS V14.01,2013-04-17 10:27:00,
2013-04-17 05:32:00,69.6,66.2,29.93,SSE,155,0.0,3.0,89,0.00,,---,0.00,VWS V14.01,2013-04-17 10:32:00,
2013-04-17 05:37:00,69.6,66.2,29.93,SSE,155,0.0,0.0,89,0.00,,---,0.00,VWS V14.01,2013-04-17 10:37:00,
2013-04-17 05:42:00,69.5,66.1,29.93,SSE,155,0.0,1.0,89,0.00,,---,0.00,VWS V14.01,2013-04-17 10:42:00,
2013-04-17 05:47:00,69.4,66.0,29.93,SSE,155,0.0,1.0,89,0.00,,---,0.00,VWS V14.01,2013-04-17 10:47:00,
2013-04-17 05:52:00,69.2,65.8,29.93,SSE,155,0.0,1.0,89,0.00,,---,0.00,VWS V14.01,2013-04-17 10:52:00,
2013-04-17 05:57:00,69.0,65.6,29.93,SSE,155,0.0,1.0,89,0.00,,---,0.00,VWS V14.01,2013-04-17 10:57:00,
2013-04-17 06:02:00,68.8,65.4,29.93,SSE,155,0.0,1.0,89,0.00,,---,0.00,VWS V14.01,2013-04-17 11:02:00,
2013-04-17 06:07:00,68.4,65.4,29.93,SSE,155,0.0,0.0,90,0.00,,---,0.00,VWS V14.01,2013-04-17 11:07:00,
2013-04-17 06:12:00,68.0,65.0,29.93,SSE,155,0.0,0.0,90,0.00,,---,0.00,VWS V14.01,2013-04-17 11:12:00,
2013-04-17 06:17:00,67.7,65.0,29.94,SSE,156,0.0,0.0,91,0.00,,---,0.00,VWS V14.01,2013-04-17 11:17:00,
2013-04-17 06:22:00,67.2,64.5,29.94,SSE,156,0.0,0.0,91,0.00,,---,0.00,VWS V14.01,2013-04-17 11:22:00,
2013-04-17 06:27:00,66.9,64.2,29.94,SSE,155,0.0,0.0,91,0.00,,---,0.00,VWS V14.01,2013-04-17 11:27:00,
2013-04-17 06:32:00,66.7,64.0,29.94,SSE,155,0.0,0.0,91,0.00,,---,0.00,VWS V14.01,2013-04-17 11:32:00,
2013-04-17 06:37:00,66.4,64.0,29.94,SSE,156,0.0,0.0,92,0.00,,---,0.00,VWS V14.01,2013-04-17 11:37:00,
2013-04-17 06:42:00,66.3,63.9,29.94,SSE,155,0.0,0.0,92,0.00,,---,0.00,VWS V14.01,2013-04-17 11:42:00,
2013-04-17 06:47:00,66.3,63.9,29.95,SSE,156,0.0,0.0,92,0.00,,---,0.00,VWS V14.01,2013-04-17 11:47:00,
2013-04-17 06:52:00,66.4,64.3,29.95,SSE,155,0.0,0.0,93,0.00,,---,0.00,VWS V14.01,2013-04-17 11:52:00,
2013-04-17 06:57:00,66.6,64.5,29.95,SSE,155,0.0,0.0,93,0.00,,---,0.00,VWS V14.01,2013-04-17 11:57:00,
2013-04-17 07:02:00,66.8,64.7,29.95,SSE,155,0.0,0.0,93,0.00,,---,0.00,VWS V14.01,2013-04-17 12:02:00,
2013-04-17 07:07:00,67.2,65.1,29.95,SSE,155,0.0,2.0,93,0.00,,---,0.00,VWS V14.01,2013-04-17 12:07:00,
2013-04-17 07:12:00,67.5,65.4,29.95,SSE,155,0.0,2.0,93,0.00,,---,0.00,VWS V14.01,2013-04-17 12:12:00,
2013-04-17 07:17:00,67.9,65.8,29.95,SSE,155,0.0,3.0,93,0.00,,---,0.00,VWS V14.01,2013-04-17 12:17:00,
2013-04-17 07:22:00,68.4,66.3,29.95,SSE,156,0.0,3.0,93,0.00,,---,0.00,VWS V14.01,2013-04-17 12:22:00,
2013-04-17 07:27:00,68.9,66.5,29.95,South,182,0.0,4.0,92,0.00,,---,0.00,VWS V14.01,2013-04-17 12:27:00,
2013-04-17 07:32:00,69.4,67.0,29.95,South,175,3.0,5.0,92,0.00,,---,0.00,VWS V14.01,2013-04-17 12:32:00,
2013-04-17 07:37:00,69.9,67.2,29.95,South,177,4.0,7.0,91,0.00,,---,0.00,VWS V14.01,2013-04-17 12:37:00,
2013-04-17 07:42:00,70.4,67.3,29.95,South,180,4.0,7.0,90,0.00,,---,0.00,VWS V14.01,2013-04-17 12:42:00,
2013-04-17 07:47:00,70.9,67.5,29.94,South,171,2.0,7.0,89,0.00,,---,0.00,VWS V14.01,2013-04-17 12:47:00,
2013-04-17 07:52:00,71.3,67.6,29.94,ESE,115,0.0,7.0,88,0.00,,---,0.00,VWS V14.01,2013-04-17 12:52:00,
2013-04-17 07:57:00,71.8,67.7,29.94,South,181,6.0,9.0,87,0.00,,---,0.00,VWS V14.01,2013-04-17 12:57:00,
2013-04-17 08:02:00,72.2,67.8,29.94,SE,146,0.0,2.0,86,0.00,,---,0.00,VWS V14.01,2013-04-17 13:02:00,
2013-04-17 08:07:00,72.4,68.0,29.94,South,191,0.0,9.0,86,0.00,,---,0.00,VWS V14.01,2013-04-17 13:07:00,
2013-04-17 08:12:00,72.5,67.7,29.94,South,190,2.0,9.0,85,0.00,,---,0.00,VWS V14.01,2013-04-17 13:12:00,
2013-04-17 08:17:00,72.8,68.0,29.94,South,182,3.0,11.0,85,0.00,,---,0.00,VWS V14.01,2013-04-17 13:17:00,
2013-04-17 08:22:00,73.0,68.2,29.94,SW,224,0.0,11.0,85,0.00,,---,0.00,VWS V14.01,2013-04-17 13:22:00,
2013-04-17 08:27:00,73.4,68.6,29.94,SSE,156,4.0,11.0,85,0.00,,---,0.00,VWS V14.01,2013-04-17 13:27:00,
2013-04-17 08:32:00,73.7,68.2,29.93,South,171,2.0,2.0,83,0.00,,---,0.00,VWS V14.01,2013-04-17 13:32:00,
2013-04-17 08:37:00,74.0,68.5,29.93,South,179,1.0,9.0,83,0.00,,---,0.00,VWS V14.01,2013-04-17 13:37:00,
2013-04-17 08:42:00,74.2,68.7,29.93,SSE,153,3.0,9.0,83,0.00,,---,0.00,VWS V14.01,2013-04-17 13:42:00,
2013-04-17 08:47:00,74.3,68.4,29.93,SSW,209,0.0,9.0,82,0.00,,---,0.00,VWS V14.01,2013-04-17 13:47:00,
2013-04-17 08:52:00,74.4,68.9,29.93,SSW,206,0.0,9.0,83,0.00,,---,0.00,VWS V14.01,2013-04-17 13:52:00,
2013-04-17 08:57:00,74.8,68.9,29.93,South,170,1.0,9.0,82,0.00,,---,0.00,VWS V14.01,2013-04-17 13:57:00,
2013-04-17 09:02:00,75.1,69.2,29.93,SSW,200,0.0,1.0,82,0.00,,---,0.00,VWS V14.01,2013-04-17 14:02:00,
2013-04-17 09:07:00,75.4,69.2,29.93,SSW,213,0.0,6.0,81,0.00,,---,0.00,VWS V14.01,2013-04-17 14:07:00,
2013-04-17 09:12:00,75.7,69.5,29.93,SSE,148,0.0,6.0,81,0.00,,---,0.00,VWS V14.01,2013-04-17 14:12:00,
2013-04-17 09:17:00,76.1,69.8,29.93,SSW,213,4.0,6.0,81,0.00,,---,0.00,VWS V14.01,2013-04-17 14:17:00,
2013-04-17 09:22:00,76.4,69.8,29.93,SE,128,4.0,6.0,80,0.00,,---,0.00,VWS V14.01,2013-04-17 14:22:00,
2013-04-17 09:27:00,76.8,69.8,29.93,SSE,162,1.0,8.0,79,0.00,,---,0.00,VWS V14.01,2013-04-17 14:27:00,
2013-04-17 09:32:00,77.3,70.3,29.93,South,186,1.0,3.0,79,0.00,,---,0.00,VWS V14.01,2013-04-17 14:32:00,
2013-04-17 09:37:00,77.7,70.3,29.93,South,175,0.0,6.0,78,0.00,,---,0.00,VWS V14.01,2013-04-17 14:37:00,
2013-04-17 09:42:00,78.0,70.2,29.93,SW,215,0.0,6.0,77,0.00,,---,0.00,VWS V14.01,2013-04-17 14:42:00,
2013-04-17 09:47:00,78.7,70.9,29.93,South,171,7.0,7.0,77,0.00,,---,0.00,VWS V14.01,2013-04-17 14:47:00,
2013-04-17 09:52:00,78.7,70.5,29.93,SSE,165,5.0,7.0,76,0.00,,---,0.00,VWS V14.01,2013-04-17 14:52:00,
2013-04-17 09:57:00,78.9,70.7,29.93,SW,215,3.0,7.0,76,0.00,,---,0.00,VWS V14.01,2013-04-17 14:57:00,
2013-04-17 10:02:00,79.0,70.0,29.93,South,179,1.0,3.0,74,0.00,,---,0.00,VWS V14.01,2013-04-17 15:02:00,
2013-04-17 10:07:00,79.1,70.5,29.93,SW,227,1.0,6.0,75,0.00,,---,0.00,VWS V14.01,2013-04-17 15:07:00,
2013-04-17 10:12:00,79.2,70.2,29.93,SW,221,1.0,9.0,74,0.00,,---,0.00,VWS V14.01,2013-04-17 15:12:00,
2013-04-17 10:17:00,79.5,70.9,29.93,South,170,1.0,9.0,75,0.00,,---,0.00,VWS V14.01,2013-04-17 15:17:00,
2013-04-17 10:22:00,79.8,70.4,29.93,South,176,0.0,10.0,73,0.00,,---,0.00,VWS V14.01,2013-04-17 15:22:00,
2013-04-17 10:27:00,80.3,70.5,29.93,SW,221,2.0,10.0,72,0.00,,---,0.00,VWS V14.01,2013-04-17 15:27:00,
2013-04-17 10:32:00,80.7,70.4,29.93,WSW,237,0.0,1.0,71,0.00,,---,0.00,VWS V14.01,2013-04-17 15:32:00,
2013-04-17 10:37:00,80.7,70.4,29.93,SSE,167,12.0,12.0,71,0.00,,---,0.00,VWS V14.01,2013-04-17 15:37:00,
2013-04-17 10:42:00,80.8,70.1,29.93,SSE,167,1.0,12.0,70,0.00,,---,0.00,VWS V14.01,2013-04-17 15:42:00,
2013-04-17 10:47:00,80.9,70.2,29.93,South,177,7.0,12.0,70,0.00,,---,0.00,VWS V14.01,2013-04-17 15:47:00,
2013-04-17 10:52:00,81.2,70.1,29.93,WSW,240,3.0,12.0,69,0.00,,---,0.00,VWS V14.01,2013-04-17 15:52:00,
2013-04-17 10:57:00,81.3,70.2,29.93,South,188,0.0,12.0,69,0.00,,---,0.00,VWS V14.01,2013-04-17 15:57:00,
2013-04-17 11:02:00,81.1,70.0,29.92,SSE,162,3.0,7.0,69,0.00,,---,0.00,VWS V14.01,2013-04-17 16:02:00,
2013-04-17 11:07:00,80.7,70.0,29.92,SSW,213,3.0,15.0,70,0.00,,---,0.00,VWS V14.01,2013-04-17 16:07:00,
2013-04-17 11:12:00,81.1,70.4,29.92,West,279,0.0,15.0,70,0.00,,---,0.00,VWS V14.01,2013-04-17 16:12:00,
2013-04-17 11:17:00,81.4,69.8,29.92,SW,217,1.0,15.0,68,0.00,,---,0.00,VWS V14.01,2013-04-17 16:17:00,
2013-04-17 11:22:00,81.8,70.2,29.92,SSE,158,0.0,15.0,68,0.00,,---,0.00,VWS V14.01,2013-04-17 16:22:00,
2013-04-17 11:27:00,82.0,70.4,29.92,SW,228,0.0,15.0,68,0.00,,---,0.00,VWS V14.01,2013-04-17 16:27:00,
2013-04-17 11:32:00,82.0,70.0,29.92,ESE,121,0.0,4.0,67,0.00,,---,0.00,VWS V14.01,2013-04-17 16:32:00,
2013-04-17 11:37:00,82.1,70.1,29.92,SW,217,1.0,9.0,67,0.00,,---,0.00,VWS V14.01,2013-04-17 16:37:00,
2013-04-17 11:42:00,82.5,70.9,29.92,SW,223,11.0,11.0,68,0.00,,---,0.00,VWS V14.01,2013-04-17 16:42:00,
2013-04-17 11:47:00,82.9,69.9,29.91,SSW,209,14.0,14.0,65,0.00,,---,0.00,VWS V14.01,2013-04-17 16:47:00,
2013-04-17 11:52:00,82.6,70.1,29.91,SW,224,5.0,14.0,66,0.00,,---,0.00,VWS V14.01,2013-04-17 16:52:00,
2013-04-17 11:57:00,82.9,70.4,29.91,NNW,328,0.0,14.0,66,0.00,,---,0.00,VWS V14.01,2013-04-17 16:57:00,
2013-04-17 12:02:00,83.4,69.9,29.91,WSW,240,1.0,2.0,64,0.00,,---,0.00,VWS V14.01,2013-04-17 17:02:00,
2013-04-17 12:07:00,83.3,69.9,29.91,WSW,255,3.0,12.0,64,0.00,,---,0.00,VWS V14.01,2013-04-17 17:07:00,
2013-04-17 12:12:00,83.6,70.1,29.91,South,181,6.0,12.0,64,0.00,,---,0.00,VWS V14.01,2013-04-17 17:12:00,
2013-04-17 12:17:00,83.2,69.8,29.90,SSE,157,9.0,16.0,64,0.00,,---,0.00,VWS V14.01,2013-04-17 17:17:00,
2013-04-17 12:22:00,83.0,69.6,29.90,SSE,156,6.0,16.0,64,0.00,,---,0.00,VWS V14.01,2013-04-17 17:22:00,
2013-04-17 12:27:00,83.7,69.8,29.90,SSW,212,1.0,16.0,63,0.00,,---,0.00,VWS V14.01,2013-04-17 17:27:00,
2013-04-17 12:32:00,84.2,69.3,29.89,SW,235,1.0,7.0,61,0.00,,---,0.00,VWS V14.01,2013-04-17 17:32:00,
2013-04-17 12:37:00,83.9,69.5,29.89,SW,229,1.0,11.0,62,0.00,,---,0.00,VWS V14.01,2013-04-17 17:37:00,
2013-04-17 12:42:00,83.7,69.3,29.89,SSW,192,0.0,13.0,62,0.00,,---,0.00,VWS V14.01,2013-04-17 17:42:00,
2013-04-17 12:47:00,83.8,69.4,29.89,SSW,201,3.0,13.0,62,0.00,,---,0.00,VWS V14.01,2013-04-17 17:47:00,
2013-04-17 12:52:00,84.6,70.6,29.89,South,188,0.0,13.0,63,0.00,,---,0.00,VWS V14.01,2013-04-17 17:52:00,
2013-04-17 12:57:00,85.0,70.1,29.89,South,179,1.0,13.0,61,0.00,,---,0.00,VWS V14.01,2013-04-17 17:57:00,
2013-04-17 13:02:00,84.9,70.0,29.88,South,179,1.0,2.0,61,0.00,,---,0.00,VWS V14.01,2013-04-17 18:02:00,
2013-04-17 13:07:00,85.2,69.8,29.88,WSW,246,6.0,9.0,60,0.00,,---,0.00,VWS V14.01,2013-04-17 18:07:00,
2013-04-17 13:12:00,85.3,68.9,29.88,SSE,160,7.0,11.0,58,0.00,,---,0.00,VWS V14.01,2013-04-17 18:12:00,
2013-04-17 13:17:00,85.2,69.8,29.87,SSW,206,1.0,11.0,60,0.00,,---,0.00,VWS V14.01,2013-04-17 18:17:00,
2013-04-17 13:22:00,85.5,69.6,29.87,SW,217,3.0,15.0,59,0.00,,---,0.00,VWS V14.01,2013-04-17 18:22:00,
2013-04-17 13:27:00,86.1,69.1,29.87,SSE,163,3.0,15.0,57,0.00,,---,0.00,VWS V14.01,2013-04-17 18:27:00,
2013-04-17 13:32:00,85.9,68.9,29.87,SSE,157,1.0,8.0,57,0.00,,---,0.00,VWS V14.01,2013-04-17 18:32:00,
2013-04-17 13:37:00,85.5,69.6,29.87,SSE,166,1.0,10.0,59,0.00,,---,0.00,VWS V14.01,2013-04-17 18:37:00,
2013-04-17 13:42:00,85.9,69.4,29.87,SW,217,4.0,10.0,58,0.00,,---,0.00,VWS V14.01,2013-04-17 18:42:00,
2013-04-17 13:47:00,86.2,69.7,29.86,SSE,159,4.0,12.0,58,0.00,,---,0.00,VWS V14.01,2013-04-17 18:47:00,
2013-04-17 13:52:00,86.1,68.6,29.86,South,172,12.0,12.0,56,0.00,,---,0.00,VWS V14.01,2013-04-17 18:52:00,
2013-04-17 13:57:00,85.8,68.3,29.86,SSE,155,0.0,16.0,56,0.00,,---,0.00,VWS V14.01,2013-04-17 18:57:00,
2013-04-17 14:02:00,86.1,68.6,29.86,SSW,202,1.0,5.0,56,0.00,,---,0.00,VWS V14.01,2013-04-17 19:02:00,
2013-04-17 14:07:00,86.3,69.3,29.86,SW,232,6.0,11.0,57,0.00,,---,0.00,VWS V14.01,2013-04-17 19:07:00,
2013-04-17 14:12:00,86.6,68.5,29.86,SW,222,4.0,11.0,55,0.00,,---,0.00,VWS V14.01,2013-04-17 19:12:00,
2013-04-17 14:17:00,86.8,68.7,29.85,SSE,157,10.0,13.0,55,0.00,,---,0.00,VWS V14.01,2013-04-17 19:17:00,
2013-04-17 14:22:00,86.3,68.2,29.85,SSE,157,3.0,13.0,55,0.00,,---,0.00,VWS V14.01,2013-04-17 19:22:00,
2013-04-17 14:27:00,85.8,68.3,29.85,South,180,0.0,13.0,56,0.00,,---,0.00,VWS V14.01,2013-04-17 19:27:00,
2013-04-17 14:32:00,85.6,69.1,29.86,SW,223,0.0,3.0,58,0.00,,---,0.00,VWS V14.01,2013-04-17 19:32:00,
2013-04-17 14:37:00,85.4,69.0,29.86,SSE,155,0.0,4.0,58,0.00,,---,0.00,VWS V14.01,2013-04-17 19:37:00,
2013-04-17 14:42:00,85.0,68.6,29.86,SSE,159,0.0,8.0,58,0.00,,---,0.00,VWS V14.01,2013-04-17 19:42:00,
2013-04-17 14:47:00,84.9,69.0,29.85,SSW,209,0.0,8.0,59,0.00,,---,0.00,VWS V14.01,2013-04-17 19:47:00,
2013-04-17 14:52:00,85.0,69.1,29.85,SSE,159,1.0,8.0,59,0.00,,---,0.00,VWS V14.01,2013-04-17 19:52:00,
2013-04-17 14:57:00,84.9,68.5,29.85,South,176,0.0,8.0,58,0.00,,---,0.00,VWS V14.01,2013-04-17 19:57:00,
2013-04-17 15:02:00,85.1,68.7,29.84,South,185,0.0,3.0,58,0.00,,---,0.00,VWS V14.01,2013-04-17 20:02:00,
2013-04-17 15:07:00,85.5,68.0,29.84,SSW,205,4.0,13.0,56,0.00,,---,0.00,VWS V14.01,2013-04-17 20:07:00,
2013-04-17 15:12:00,85.5,68.0,29.84,South,173,2.0,13.0,56,0.00,,---,0.00,VWS V14.01,2013-04-17 20:12:00,
2013-04-17 15:17:00,85.5,67.5,29.83,SSE,150,1.0,13.0,55,0.00,,---,0.00,VWS V14.01,2013-04-17 20:17:00,
2013-04-17 15:22:00,85.3,67.3,29.83,South,182,0.0,15.0,55,0.00,,---,0.00,VWS V14.01,2013-04-17 20:22:00,
2013-04-17 15:27:00,85.1,67.1,29.83,SSE,155,2.0,15.0,55,0.00,,---,0.00,VWS V14.01,2013-04-17 20:27:00,
2013-04-17 15:32:00,85.0,68.1,29.83,SSE,165,1.0,1.0,57,0.00,,---,0.00,VWS V14.01,2013-04-17 20:32:00,
2013-04-17 15:37:00,85.1,68.2,29.83,South,178,0.0,4.0,57,0.00,,---,0.00,VWS V14.01,2013-04-17 20:37:00,
2013-04-17 15:42:00,85.0,68.1,29.83,South,189,2.0,5.0,57,0.00,,---,0.00,VWS V14.01,2013-04-17 20:42:00,
2013-04-17 15:47:00,84.8,67.9,29.82,SSW,202,1.0,5.0,57,0.00,,---,0.00,VWS V14.01,2013-04-17 20:47:00,
2013-04-17 15:52:00,84.5,68.1,29.82,SSW,213,1.0,5.0,58,0.00,,---,0.00,VWS V14.01,2013-04-17 20:52:00,
2013-04-17 15:57:00,84.1,67.7,29.82,SSE,163,7.0,7.0,58,0.00,,---,0.00,VWS V14.01,2013-04-17 20:57:00,
2013-04-17 16:02:00,83.7,67.9,29.80,SE,144,0.0,2.0,59,0.00,,---,0.00,VWS V14.01,2013-04-17 21:02:00,
2013-04-17 16:07:00,83.6,68.3,29.80,SSW,202,0.0,6.0,60,0.00,,---,0.00,VWS V14.01,2013-04-17 21:07:00,
2013-04-17 16:12:00,83.6,68.3,29.80,South,177,0.0,6.0,60,0.00,,---,0.00,VWS V14.01,2013-04-17 21:12:00,
2013-04-17 16:17:00,83.7,68.3,29.80,South,180,0.0,6.0,60,0.00,,---,0.00,VWS V14.01,2013-04-17 21:17:00,
2013-04-17 16:22:00,83.8,68.4,29.80,SSE,163,0.0,6.0,60,0.00,,---,0.00,VWS V14.01,2013-04-17 21:22:00,
2013-04-17 16:27:00,84.0,68.6,29.80,South,181,5.0,6.0,60,0.00,,---,0.00,VWS V14.01,2013-04-17 21:27:00,
2013-04-17 16:32:00,84.1,68.7,29.79,SE,138,0.0,1.0,60,0.00,,---,0.00,VWS V14.01,2013-04-17 21:32:00,
2013-04-17 16:37:00,84.5,69.6,29.79,SE,140,0.0,1.0,61,0.00,,---,0.00,VWS V14.01,2013-04-17 21:37:00,
2013-04-17 16:43:00,85.0,69.1,29.79,South,191,1.0,6.0,59,0.00,,---,0.00,VWS V14.01,2013-04-17 21:43:00,
2013-04-17 16:48:00,85.2,68.8,29.79,SE,130,3.0,6.0,58,0.00,,---,0.00,VWS V14.01,2013-04-17 21:48:00,
2013-04-17 16:53:00,85.3,68.9,29.79,ESE,117,1.0,6.0,58,0.00,,---,0.00,VWS V14.01,2013-04-17 21:53:00,
2013-04-17 16:58:00,85.1,68.7,29.79,SSW,202,3.0,12.0,58,0.00,,---,0.00,VWS V14.01,2013-04-17 21:58:00,
2013-04-17 17:03:00,85.1,68.2,29.79,ESE,116,0.0,11.0,57,0.00,,---,0.00,VWS V14.01,2013-04-17 22:03:00,
2013-04-17 17:08:00,84.8,68.4,29.79,SSE,159,5.0,11.0,58,0.00,,---,0.00,VWS V14.01,2013-04-17 22:08:00,
2013-04-17 17:13:00,84.4,69.0,29.79,South,182,1.0,11.0,60,0.00,,---,0.00,VWS V14.01,2013-04-17 22:13:00,
2013-04-17 17:18:00,83.8,68.9,29.79,South,190,6.0,15.0,61,0.00,,---,0.00,VWS V14.01,2013-04-17 22:18:00,
2013-04-17 17:23:00,82.3,67.5,29.79,SSE,164,3.0,15.0,61,0.00,,---,0.00,VWS V14.01,2013-04-17 22:23:00,
2013-04-17 17:28:00,81.8,67.5,29.79,SSE,149,9.0,15.0,62,0.00,,---,0.00,VWS V14.01,2013-04-17 22:28:00,
2013-04-17 17:33:00,81.4,67.6,29.78,SSE,147,3.0,10.0,63,0.00,,---,0.00,VWS V14.01,2013-04-17 22:33:00,
2013-04-17 17:38:00,81.0,67.2,29.78,South,184,1.0,10.0,63,0.00,,---,0.00,VWS V14.01,2013-04-17 22:38:00,
2013-04-17 17:43:00,80.6,67.8,29.78,SSE,156,5.0,10.0,65,0.00,,---,0.00,VWS V14.01,2013-04-17 22:43:00,
2013-04-17 17:48:00,80.2,68.3,29.77,SSE,155,0.0,10.0,67,0.00,,---,0.00,VWS V14.01,2013-04-17 22:48:00,
2013-04-17 17:53:00,80.2,67.8,29.77,South,178,2.0,10.0,66,0.00,,---,0.00,VWS V14.01,2013-04-17 22:53:00,
2013-04-17 17:58:00,80.1,67.7,29.77,SE,138,2.0,10.0,66,0.00,,---,0.00,VWS V14.01,2013-04-17 22:58:00,
2013-04-17 18:03:00,79.9,68.0,29.76,SSW,195,0.0,3.0,67,0.00,,---,0.00,VWS V14.01,2013-04-17 23:03:00,
2013-04-17 18:08:00,80.0,68.1,29.76,South,186,0.0,6.0,67,0.00,,---,0.00,VWS V14.01,2013-04-17 23:08:00,
2013-04-17 18:13:00,80.2,67.8,29.76,SSE,168,3.0,6.0,66,0.00,,---,0.00,VWS V14.01,2013-04-17 23:13:00,
2013-04-17 18:18:00,80.0,68.1,29.76,South,183,0.0,7.0,67,0.00,,---,0.00,VWS V14.01,2013-04-17 23:18:00,
2013-04-17 18:23:00,80.0,68.1,29.76,SSW,208,1.0,7.0,67,0.00,,---,0.00,VWS V14.01,2013-04-17 23:23:00,
2013-04-17 18:28:00,79.9,68.0,29.76,SE,146,1.0,7.0,67,0.00,,---,0.00,VWS V14.01,2013-04-17 23:28:00,
2013-04-17 18:33:00,79.7,67.8,29.75,South,179,0.0,2.0,67,0.00,,---,0.00,VWS V14.01,2013-04-17 23:33:00,
2013-04-17 18:38:00,79.5,67.6,29.75,SSE,164,0.0,4.0,67,0.00,,---,0.00,VWS V14.01,2013-04-17 23:38:00,
2013-04-17 18:43:00,79.4,67.5,29.75,SSE,153,2.0,4.0,67,0.00,,---,0.00,VWS V14.01,2013-04-17 23:43:00,
2013-04-17 18:47:00,79.3,67.4,29.75,SSE,165,3.0,6.0,67,0.00,,---,0.00,VWS V14.01,2013-04-17 23:47:00,
2013-04-17 18:52:00,79.2,67.7,29.75,SSE,164,0.0,6.0,68,0.00,,---,0.00,VWS V14.01,2013-04-17 23:52:00,
2013-04-17 18:57:00,79.1,67.6,29.75,South,174,0.0,6.0,68,0.00,,---,0.00,VWS V14.01,2013-04-17 23:57:00,
2013-04-17 19:02:00,79.0,67.6,29.75,SSE,163,0.0,1.0,68,0.00,,---,0.00,VWS V14.01,2013-04-18 00:02:00,
2013-04-17 19:07:00,78.9,67.4,29.75,SSE,163,0.0,5.0,68,0.00,,---,0.00,VWS V14.01,2013-04-18 00:07:00,
2013-04-17 19:12:00,78.7,67.7,29.75,SSE,162,1.0,5.0,69,0.00,,---,0.00,VWS V14.01,2013-04-18 00:12:00,
2013-04-17 19:17:00,78.5,67.5,29.74,SSE,162,0.0,5.0,69,0.00,,---,0.00,VWS V14.01,2013-04-18 00:17:00,
2013-04-17 19:22:00,78.2,67.6,29.74,SE,128,0.0,5.0,70,0.00,,---,0.00,VWS V14.01,2013-04-18 00:22:00,
2013-04-17 19:27:00,78.0,67.8,29.74,SE,130,0.0,5.0,71,0.00,,---,0.00,VWS V14.01,2013-04-18 00:27:00,
2013-04-17 19:33:00,77.6,67.5,29.74,SE,129,0.0,1.0,71,0.00,,---,0.00,VWS V14.01,2013-04-18 00:33:00,
2013-04-17 19:38:00,77.4,67.7,29.74,SE,130,0.0,2.0,72,0.00,,---,0.00,VWS V14.01,2013-04-18 00:38:00,
2013-04-17 19:43:00,77.1,67.8,29.74,SE,130,0.0,2.0,73,0.00,,---,0.00,VWS V14.01,2013-04-18 00:43:00,
2013-04-17 19:48:00,76.8,67.5,29.74,SE,130,0.0,2.0,73,0.00,,---,0.00,VWS V14.01,2013-04-18 00:48:00,
2013-04-17 19:53:00,76.4,67.5,29.74,SE,130,0.0,2.0,74,0.00,,---,0.00,VWS V14.01,2013-04-18 00:53:00,
2013-04-17 19:58:00,76.1,67.6,29.74,SE,130,0.0,2.0,75,0.00,,---,0.00,VWS V14.01,2013-04-18 00:58:00,
2013-04-17 20:02:00,75.7,67.6,29.74,SE,130,0.0,0.0,76,0.00,,---,0.00,VWS V14.01,2013-04-18 01:02:00,
2013-04-17 20:07:00,75.5,67.8,29.74,SSE,162,0.0,2.0,77,0.00,,---,0.00,VWS V14.01,2013-04-18 01:07:00,
2013-04-17 20:12:00,75.3,67.6,29.74,SE,144,0.0,3.0,77,0.00,,---,0.00,VWS V14.01,2013-04-18 01:12:00,
2013-04-17 20:18:00,75.3,68.0,29.75,SSE,161,0.0,4.0,78,0.00,,---,0.00,VWS V14.01,2013-04-18 01:18:00,
2013-04-17 20:23:00,75.2,67.9,29.75,SSE,168,0.0,4.0,78,0.00,,---,0.00,VWS V14.01,2013-04-18 01:23:00,
2013-04-17 20:28:00,75.1,67.8,29.75,South,179,1.0,4.0,78,0.00,,---,0.00,VWS V14.01,2013-04-18 01:28:00,
2013-04-17 20:33:00,75.0,68.1,29.75,SSE,161,0.0,5.0,79,0.00,,---,0.00,VWS V14.01,2013-04-18 01:33:00,
2013-04-17 20:38:00,75.1,68.2,29.75,SSE,167,0.0,5.0,79,0.00,,---,0.00,VWS V14.01,2013-04-18 01:38:00,
2013-04-17 20:43:00,75.3,68.0,29.75,SSE,164,2.0,6.0,78,0.00,,---,0.00,VWS V14.01,2013-04-18 01:43:00,
2013-04-17 20:48:00,75.5,68.2,29.75,SSE,157,0.0,6.0,78,0.00,,---,0.00,VWS V14.01,2013-04-18 01:48:00,
2013-04-17 20:53:00,75.6,67.9,29.75,SSE,163,0.0,7.0,77,0.00,,---,0.00,VWS V14.01,2013-04-18 01:53:00,
2013-04-17 20:58:00,75.7,68.0,29.75,SSE,156,2.0,7.0,77,0.00,,---,0.00,VWS V14.01,2013-04-18 01:58:00,
2013-04-17 21:03:00,75.7,67.6,29.75,SSE,168,1.0,4.0,76,0.00,,---,0.00,VWS V14.01,2013-04-18 02:03:00,
2013-04-17 21:08:00,75.7,67.6,29.75,SSE,155,5.0,6.0,76,0.00,,---,0.00,VWS V14.01,2013-04-18 02:08:00,
2013-04-17 21:13:00,75.7,67.6,29.75,South,171,0.0,6.0,76,0.00,,---,0.00,VWS V14.01,2013-04-18 02:13:00,
2013-04-17 21:18:00,75.8,67.3,29.74,SSE,159,0.0,6.0,75,0.00,,---,0.00,VWS V14.01,2013-04-18 02:18:00,
2013-04-17 21:23:00,76.1,67.2,29.74,SSE,159,0.0,10.0,74,0.00,,---,0.00,VWS V14.01,2013-04-18 02:23:00,
2013-04-17 21:28:00,76.2,66.9,29.74,SSE,160,3.0,10.0,73,0.00,,---,0.00,VWS V14.01,2013-04-18 02:28:00,
2013-04-17 21:33:00,76.4,67.1,29.74,SSE,167,3.0,5.0,73,0.00,,---,0.00,VWS V14.01,2013-04-18 02:33:00,
2013-04-17 21:38:00,76.5,66.8,29.74,SSE,155,0.0,10.0,72,0.00,,---,0.00,VWS V14.01,2013-04-18 02:38:00,
2013-04-17 21:43:00,76.6,66.5,29.74,SSE,165,6.0,10.0,71,0.00,,---,0.00,VWS V14.01,2013-04-18 02:43:00,
2013-04-17 21:48:00,76.5,66.4,29.74,South,181,3.0,10.0,71,0.00,,---,0.00,VWS V14.01,2013-04-18 02:48:00,
2013-04-17 21:53:00,76.4,66.7,29.74,SSE,165,5.0,10.0,72,0.00,,---,0.00,VWS V14.01,2013-04-18 02:53:00,
2013-04-17 21:58:00,76.2,66.1,29.74,SE,125,6.0,10.0,71,0.00,,---,0.00,VWS V14.01,2013-04-18 02:58:00,
2013-04-17 22:03:00,76.2,66.1,29.74,SE,143,0.0,5.0,71,0.00,,---,0.00,VWS V14.01,2013-04-18 03:03:00,
2013-04-17 22:08:00,76.1,66.0,29.74,SE,139,1.0,11.0,71,0.00,,---,0.00,VWS V14.01,2013-04-18 03:08:00,
2013-04-17 22:13:00,75.9,65.8,29.74,SE,144,2.0,11.0,71,0.00,,---,0.00,VWS V14.01,2013-04-18 03:13:00,
2013-04-17 22:18:00,75.9,65.8,29.74,SSE,148,11.0,11.0,71,0.00,,---,0.00,VWS V14.01,2013-04-18 03:18:00,
2013-04-17 22:23:00,75.9,65.8,29.74,South,175,5.0,12.0,71,0.00,,---,0.00,VWS V14.01,2013-04-18 03:23:00,
2013-04-17 22:28:00,75.9,65.8,29.74,SSE,147,3.0,12.0,71,0.00,,---,0.00,VWS V14.01,2013-04-18 03:28:00,
2013-04-17 22:33:00,75.9,65.4,29.73,SSE,157,9.0,13.0,70,0.00,,---,0.00,VWS V14.01,2013-04-18 03:33:00,
2013-04-17 22:38:00,76.0,65.5,29.73,SSE,162,6.0,13.0,70,0.00,,---,0.00,VWS V14.01,2013-04-18 03:38:00,
2013-04-17 22:43:00,76.1,65.6,29.73,SSE,166,6.0,13.0,70,0.00,,---,0.00,VWS V14.01,2013-04-18 03:43:00,
2013-04-17 22:48:00,76.2,65.3,29.73,SSE,163,4.0,13.0,69,0.00,,---,0.00,VWS V14.01,2013-04-18 03:48:00,
2013-04-17 22:53:00,76.2,65.3,29.73,SW,224,3.0,13.0,69,0.00,,---,0.00,VWS V14.01,2013-04-18 03:53:00,
2013-04-17 22:58:00,76.1,65.2,29.73,South,175,7.0,19.0,69,0.00,,---,0.00,VWS V14.01,2013-04-18 03:58:00,
2013-04-17 23:01:00,76.2,65.3,29.73,South,169,1.0,19.0,69,0.00,,---,0.00,VWS V14.01,2013-04-18 04:01:00,
2013-04-17 23:06:00,76.3,65.4,29.73,SSE,161,5.0,13.0,69,0.00,,---,0.00,VWS V14.01,2013-04-18 04:06:00,
2013-04-17 23:11:00,76.3,65.4,29.73,SSE,155,2.0,13.0,69,0.00,,---,0.00,VWS V14.01,2013-04-18 04:11:00,
2013-04-17 23:16:00,76.3,65.4,29.72,SSE,155,0.0,14.0,69,0.00,,---,0.00,VWS V14.01,2013-04-18 04:16:00,
2013-04-17 23:21:00,76.2,65.3,29.72,SE,146,1.0,14.0,69,0.00,,---,0.00,VWS V14.01,2013-04-18 04:21:00,
2013-04-17 23:26:00,76.1,65.6,29.72,SSW,204,3.0,14.0,70,0.00,,---,0.00,VWS V14.01,2013-04-18 04:26:00,
2013-04-17 23:31:00,76.0,65.5,29.72,SSE,162,2.0,14.0,70,0.00,,---,0.00,VWS V14.01,2013-04-18 04:31:00,
2013-04-17 23:36:00,75.9,65.4,29.72,SSE,167,1.0,12.0,70,0.00,,---,0.00,VWS V14.01,2013-04-18 04:36:00,
2013-04-17 23:41:00,75.8,65.3,29.72,South,178,6.0,17.0,70,0.00,,---,0.00,VWS V14.01,2013-04-18 04:41:00,
2013-04-17 23:46:00,75.9,65.4,29.72,SW,221,4.0,17.0,70,0.00,,---,0.00,VWS V14.01,2013-04-18 04:46:00,
2013-04-17 23:51:00,75.9,65.4,29.72,SSW,204,3.0,21.0,70,0.00,,---,0.00,VWS V14.01,2013-04-18 04:51:00,
2013-04-17 23:56:00,75.8,65.7,29.72,South,176,9.0,21.0,71,0.00,,---,0.00,VWS V14.01,2013-04-18 04:56:00,